sat.trackr.live / text

‹ back to catalog

STARLINK-6067

NORAD 56816 · 2023-078BB

PAYLOAD ACTIVE UNKNOWN

§ Identity

Operator
Country
US
Launch date
2023-05-31
Launch site
AFWTR
Launch vehicle
Mass (kg)
RCS (m²)

Purposes: comms

External: N2YO · Heavens-Above · Gunter

§ Orbital elements

Epoch: 2026-05-25T02:21:18.375840Z

Period
96.11 min
Inclination
69.9987°
Eccentricity
0.0003814
Mean motion
14.98332744 rev/d
Perigee alt
569.4 km
Apogee alt
574.7 km
Semi-major
6,950.2 km
B*
-1.8850e-5
RAAN
131.6063°
Arg perigee
262.8938°
Mean anomaly
97.1787°
Rev number
16,462

§ Raw data

STARLINK-60671 56816U 23078BB  26145.09812935 -.00000318  00000+0 -18850-4 0  99902 56816  69.9987 131.6063 0003814 262.8938  97.1787 14.98332744164623

JSON: /api/v1/satellites/56816 · /tle

For live sub-satellite position, see the globe view (requires WebGL).

§ Visibility from observer

Set your observer location to see the next 7 days of passes ≥ 10°. The values pass through the URL so the page stays shareable.

No JS? Fill the form by hand. The geolocation button needs JavaScript.